METEOR 2-6 DEB, 38837

Orbit data source: Space-Track

METEOR 2-6 DEB, 38837 is space debris in LEO originally from a launch on Tue, 09 Sep 1980 UTC launched from the Plesetsk Missile And Space Complex (PKMTR). Debris objects in space refer to the collection of defunct objects orbiting the Earth. Examples of debris include non-operational satellites, rocket bodies, and fragments generated from explosions, collisions, or faulty payload assembly.

Loading next visibility...
Identifier
38837, 1980-073P
Orbit
LEO
Country
Flag of CISCIS
Related business
Manufacturer
Unknown
Mission
Spacecraft
Bus & Motor
Unknown
Mass
Unknown
Launch date (UTC)
1980-09-09 (45 years ago)
Launch vehicle
Unknown
Launch site
Plesetsk Missile And Space Complex (PKMTR)
Object type
Payload
Rocket body
Debris
Shape & HBR
Unknown
Radar Cross Section
Small (<0.1 m²)

Expand to show TLE details & history
Last TLE update: 14 hours ago

TLE from 14 hours ago
0 METEOR 2-6 DEB
1 38837U 80073P   25242.07354763  .00112492  00000-0  81227-2 0  9998
2 38837  81.1821 175.5958 0013449 104.2456 268.7425 15.03467795639576
Epoch: 2025-08-30T01:45Z
TLE epoch observation values (Epoch: 2025-08-30T01:45:54.515Z)
Latitude
12.63994°
Longitude
172.58832°
Altitude
558.693 km
Speed
7.583 km/s
True Right ascension
11h 50m 18s
True Declination
12° 33' 53"
Sunlit
Object was in daylight at epoch
Visualization orbit readout
Latitude
Unknown
Longitude
Unknown
Altitude
Unknown
Speed
Unknown
Apparent Right ascension
Unknown
Apparent Declination
Unknown
Sunlit
N/A
Visualization observer readout
Local Sidereal Time
07:43:02
Azimuth
Unknown
Elevation
Unknown
Doppler factor
Unknown
Orbital elements
Apogee altitude
562.588 km
Perigee altitude
543.944 km
Semi-major axis
6,931.403 km
Eccentricity
0.00134
Inclination
81.1821°
RAAN
175.5958°
Arg. of periapsis
104.2456°
True anomaly
268.58843°
Mean anomaly
268.7425°
Eccentric anomaly
268.66546°
Mean motion
3.76107 °/min
Orbital period
95.72 mins
BSTAR
0.0081227
Loading maneuver chart data...
Computing Atmospheric mass density...
Loading historical data...
Loading historical data...
Loading historical data...
Loading historical data...
Loading historical data...
Loading historical data...
Loading historical data...

Documentation

Showing up to 5 results
|